Flag Weather past 2 weeks in Leawood, Kansas, U.S.A.

Now
56 °F

Overcast.


Feels Like: 52 °F
Forecast: 38 / 57 °F
Wind: 15 mph from South

Location: Johnson County Executive Airport

Current Time: Nov 22, 2014 at 7:33:11 PM

Latest Report: Nov 22, 2014 at 7:02 PM


Visibility: 10 mi

Pressure: 29.76 "Hg

Humidity: 87%

Dew point: 52 °F

Location of LeawoodLocation

Historic Weather in Leawood — Graph

°F

Leawood temperature yesterday

Maximum temperature yesterday: 49 °F (at 11:53 PM)
Minimum temperature yesterday: 24 °F (at 4:53 AM)
Average temperature yesterday: 37 °F

Past Weeks' High & Low Weather Summary

 TemperatureHumidityPressure
High69 °F (Nov 10, 1:53 PM)100% (Nov 22, 1:01 AM)30.61 "Hg (Nov 22, 1:01 AM)
Low11 °F (Nov 18, 2:53 AM)33% (Nov 17, 1:53 PM)29.36 "Hg (Nov 10, 12:53 PM)
Average33 °F63%30.16 "Hg
* Reported Nov 7 5:53 PM — Nov 22 5:53 PM, Leawood, Weather by CustomWeather, © 2014

Note: Actual official high and low records may vary slightly from our data, if they occured in-between our weather recording intervals... More about our weather records

Advertising

Leawood weather history for previous 24 hours

 ConditionsComfort  
Time TempWeatherWind HumidityBarometerVisibility
5:53 PM
Nov 22
53 °FPassing clouds.13 mph93%29.76 "Hg10 mi
4:53 PM57 °FBroken clouds.10 mph83%29.78 "Hg10 mi
3:53 PM58 °FPartly sunny.10 mph81%29.79 "Hg10 mi
2:53 PM59 °FPartly sunny.13 mph78%29.80 "Hg10 mi
1:53 PM59 °FOvercast.16 mph81%29.81 "Hg10 mi
12:53 PM57 °FOvercast.13 mph90%29.85 "Hg8 mi
11:53 AM56 °FFog.12 mph93%29.89 "Hg6 mi
10:53 AM55 °FFog.13 mph96%29.92 "Hg5 mi
9:53 AM55 °FFog.12 mph96%29.95 "Hg4 mi
8:53 AM54 °FFog.15 mph100%29.96 "Hg3 mi
8:00 AM53 °FFog.12 mph100%29.96 "Hg1 mi
7:53 AM53 °FFog.12 mph100%29.96 "Hg1 mi
6:53 AM53 °FFog.13 mph100%29.96 "Hg1 mi
5:53 AM53 °FFog.10 mph100%29.97 "Hg1 mi
4:53 AM51 °FFog.6 mph100%29.99 "Hg1 mi
4:02 AM51 °FFog.10 mph100%29.99 "Hg1 mi
3:53 AM51 °FFog.12 mph100%30.00 "Hg1 mi
2:53 AM50 °FFog.15 mph100%30.01 "Hg2 mi
1:53 AM49 °FFog.10 mph100%30.03 "Hg1 mi
1:01 AM49 °FFog.10 mph100%30.03 "Hg2 mi
11:53 PM
Nov 21
49 °FFog.12 mph97%30.04 "Hg5 mi
10:53 PM48 °FFog.9 mph93%30.05 "Hg6 mi
9:53 PM48 °FLow clouds.12 mph89%30.06 "Hg7 mi
8:53 PM46 °FOvercast.10 mph89%30.07 "Hg9 mi
8:01 PM45 °FOvercast.9 mph86%30.06 "Hg10 mi
Weather by CustomWeather, © 2014

See weather overviewHow to use our weather pages